When you browse on this site, cookies collect data to enhance your experience and personalize the content and advertising you see.
Visit our Privacy Policy to learn more. By continuing to use the site, you agree to this use of cookies and data.
  • In Hungary
  • List of Countries
  • For 7 days
  • Water Temperature
  • Weather Map
  • News
  • Weather Widgets
  • user-avatar
    Login

    Hourly Weather El Dorado

    Today, 18 November, Monday

    Time Temperature Precipitation Wind Pressure Humidity
    00:00 +8°C° 0 mm 1 mps 755 mmHg 78%
    01:00 +7°C° 0 mm 1 mps 754 mmHg 82%
    02:00 +7°C° 0 mm 1 mps 754 mmHg 86%
    03:00 +7°C° 0 mm 1 mps 754 mmHg 90%
    04:00 +7°C° 0 mm 1 mps 754 mmHg 91%
    05:00 +7°C° 0 mm 1 mps 754 mmHg 92%
    06:00 +6°C° 0 mm 1 mps 754 mmHg 94%
    07:00 +8°C° 0 mm 1 mps 755 mmHg 86%
    08:00 +10°C° 0 mm 1 mps 755 mmHg 79%
    09:00 +10°C° 0 mm 0 mps 755 mmHg 72%
    10:00 +13°C° 0 mm 1 mps 755 mmHg 64%
    11:00 +15°C° 0 mm 1 mps 755 mmHg 55%
    12:00 +18°C° 0 mm 1 mps 754 mmHg 47%
    13:00 +18°C° 0 mm 2 mps 754 mmHg 47%
    14:00 +18°C° 0 mm 2 mps 753 mmHg 46%
    15:00 +18°C° 0 mm 2 mps 752 mmHg 45%
    16:00 +16°C° 0 mm 2 mps 752 mmHg 54%
    17:00 +14°C° 0 mm 2 mps 752 mmHg 63%
    18:00 +12°C° 0 mm 1 mps 752 mmHg 71%
    19:00 +12°C° 0 mm 1 mps 753 mmHg 73%
    20:00 +11°C° 0 mm 1 mps 753 mmHg 76%
    21:00 +9°C° 0 mm 2 mps 753 mmHg 78%
    22:00 +9°C° 0 mm 2 mps 753 mmHg 79%
    23:00 +9°C° 0 mm 2 mps 753 mmHg 80%

    Tomorrow, 19 November, Tuesday

    Time Temperature Precipitation Wind Pressure Humidity
    00:00 +9°C° 0 mm 2 mps 753 mmHg 81%
    01:00 +9°C° 0 mm 2 mps 753 mmHg 82%
    02:00 +9°C° 0 mm 2 mps 753 mmHg 83%
    03:00 +9°C° 0 mm 2 mps 752 mmHg 85%
    04:00 +8°C° 0 mm 2 mps 753 mmHg 86%
    05:00 +8°C° 0 mm 2 mps 753 mmHg 87%
    06:00 +8°C° 0 mm 2 mps 753 mmHg 87%
    07:00 +9°C° 0 mm 2 mps 753 mmHg 81%
    08:00 +12°C° 0 mm 2 mps 754 mmHg 75%
    09:00 +14°C° 0 mm 2 mps 754 mmHg 68%
    10:00 +16°C° 0 mm 2 mps 754 mmHg 62%
    11:00 +19°C° 0 mm 2 mps 754 mmHg 55%
    12:00 +21°C° 0 mm 2 mps 754 mmHg 48%
    13:00 +23°C° 0 mm 2 mps 754 mmHg 46%
    14:00 +23°C° 0 mm 2 mps 754 mmHg 43%
    15:00 +24°C° 0 mm 2 mps 754 mmHg 41%
    16:00 +21°C° 0 mm 1 mps 754 mmHg 49%
    17:00 +19°C° 0 mm 1 mps 754 mmHg 56%
    18:00 +15°C° 0 mm 1 mps 754 mmHg 64%
    19:00 +14°C° 0 mm 1 mps 754 mmHg 67%
    20:00 +14°C° 0 mm 1 mps 755 mmHg 70%
    21:00 +13°C° 0 mm 1 mps 755 mmHg 73%
    22:00 +13°C° 0 mm 1 mps 755 mmHg 76%
    23:00 +12°C° 0 mm 1 mps 755 mmHg 78%

    Day after tomorrow, 20 November, Wednesday

    Time Temperature Precipitation Wind Pressure Humidity
    00:00 +12°C° 0 mm 1 mps 755 mmHg 80%
    01:00 +12°C° 0 mm 1 mps 755 mmHg 84%
    02:00 +12°C° 0 mm 1 mps 755 mmHg 88%
    03:00 +11°C° 0 mm 1 mps 755 mmHg 91%
    04:00 +11°C° 0 mm 1 mps 756 mmHg 93%
    05:00 +11°C° 0 mm 1 mps 756 mmHg 94%
    06:00 +11°C° 0 mm 1 mps 756 mmHg 95%
    07:00 +12°C° 0 mm 2 mps 756 mmHg 88%
    08:00 +14°C° 0 mm 2 mps 757 mmHg 81%
    09:00 +16°C° 0 mm 3 mps 757 mmHg 74%
    10:00 +18°C° 0 mm 3 mps 757 mmHg 66%
    11:00 +20°C° 0 mm 3 mps 756 mmHg 58%
    12:00 +22°C° 0 mm 4 mps 756 mmHg 50%
    13:00 +22°C° 0 mm 4 mps 755 mmHg 50%
    14:00 +23°C° 0 mm 4 mps 755 mmHg 50%
    15:00 +23°C° 0 mm 4 mps 755 mmHg 50%
    16:00 +21°C° 0 mm 3 mps 755 mmHg 59%
    17:00 +19°C° 0 mm 3 mps 755 mmHg 67%
    18:00 +18°C° 0 mm 3 mps 755 mmHg 76%
    19:00 +18°C° 0 mm 3 mps 755 mmHg 77%
    20:00 +18°C° 0 mm 4 mps 755 mmHg 78%
    21:00 +18°C° 0 mm 4 mps 755 mmHg 79%
    22:00 +18°C° 0 mm 4 mps 755 mmHg 81%
    23:00 +18°C° 0 mm 4 mps 755 mmHg 83%

    21 November, Thursday

    Time Temperature Precipitation Wind Pressure Humidity
    00:00 +18°C° 0 mm 3 mps 755 mmHg 85%
    01:00 +18°C° 0 mm 3 mps 755 mmHg 85%
    02:00 +18°C° 0 mm 3 mps 755 mmHg 85%
    03:00 +19°C° 0 mm 4 mps 755 mmHg 85%
    04:00 +19°C° 0.1 mm 3 mps 755 mmHg 87%
    05:00 +18°C° 0.1 mm 3 mps 755 mmHg 89%
    06:00 +18°C° 0.1 mm 3 mps 755 mmHg 91%
    07:00 +19°C° 0 mm 3 mps 756 mmHg 89%
    08:00 +20°C° 0 mm 4 mps 756 mmHg 86%
    09:00 +20°C° 0 mm 4 mps 756 mmHg 83%
    10:00 +21°C° 0 mm 4 mps 756 mmHg 79%
    11:00 +22°C° 0 mm 4 mps 756 mmHg 75%
    12:00 +23°C° 0 mm 4 mps 755 mmHg 71%
    13:00 +23°C° 0.1 mm 4 mps 755 mmHg 74%
    14:00 +22°C° 0.1 mm 4 mps 754 mmHg 76%
    15:00 +22°C° 0.1 mm 4 mps 754 mmHg 79%
    16:00 +21°C° 0.1 mm 4 mps 754 mmHg 82%
    17:00 +21°C° 0.1 mm 4 mps 754 mmHg 84%
    18:00 +20°C° 0.1 mm 4 mps 754 mmHg 87%
    19:00 +20°C° 0 mm 4 mps 754 mmHg 87%
    20:00 +20°C° 0 mm 4 mps 754 mmHg 86%
    21:00 +20°C° 0 mm 4 mps 754 mmHg 85%
    22:00 +20°C° 0 mm 4 mps 753 mmHg 85%
    23:00 +20°C° 0 mm 4 mps 753 mmHg 84%

    22 November, Friday

    Time Temperature Precipitation Wind Pressure Humidity
    00:00 +20°C° 0 mm 4 mps 752 mmHg 84%
    01:00 +20°C° 0.1 mm 4 mps 752 mmHg 86%
    02:00 +19°C° 0.1 mm 4 mps 752 mmHg 89%
    03:00 +19°C° 0.1 mm 4 mps 751 mmHg 91%
    04:00 +19°C° 0.5 mm 3 mps 752 mmHg 93%
    05:00 +19°C° 0.5 mm 3 mps 752 mmHg 95%
    06:00 +19°C° 0.5 mm 2 mps 752 mmHg 97%
    07:00 +19°C° 0.9 mm 3 mps 752 mmHg 96%
    08:00 +19°C° 0.9 mm 3 mps 753 mmHg 94%
    09:00 +20°C° 0.9 mm 3 mps 753 mmHg 93%
    10:00 +18°C° 0.9 mm 4 mps 753 mmHg 92%
    11:00 +15°C° 0.9 mm 4 mps 754 mmHg 91%
    12:00 +13°C° 0.9 mm 5 mps 754 mmHg 90%
    13:00 +12°C° 0.3 mm 5 mps 754 mmHg 90%
    14:00 +12°C° 0.3 mm 5 mps 754 mmHg 91%
    15:00 +10°C° 0.3 mm 5 mps 754 mmHg 91%
    16:00 +10°C° 0 mm 4 mps 755 mmHg 91%
    17:00 +9°C° 0 mm 3 mps 756 mmHg 90%
    18:00 +9°C° 0 mm 3 mps 756 mmHg 89%
    19:00 +8°C° 0 mm 3 mps 757 mmHg 86%
    20:00 +8°C° 0 mm 3 mps 757 mmHg 83%
    21:00 +7°C° 0 mm 4 mps 758 mmHg 80%
    22:00 +7°C° 0 mm 3 mps 758 mmHg 80%
    23:00 +5°C° 0 mm 3 mps 758 mmHg 81%

    23 November, Saturday

    Time Temperature Precipitation Wind Pressure Humidity
    00:00 +5°C° 0 mm 2 mps 759 mmHg 81%
    01:00 +4°C° 0 mm 2 mps 759 mmHg 81%
    02:00 +4°C° 0 mm 2 mps 759 mmHg 80%
    03:00 +3°C° 0 mm 2 mps 759 mmHg 80%
    04:00 +3°C° 0 mm 2 mps 760 mmHg 79%
    05:00 +2°C° 0 mm 2 mps 760 mmHg 78%
    06:00 +2°C° 0 mm 2 mps 760 mmHg 77%
    07:00 +3°C° 0 mm 2 mps 761 mmHg 70%
    08:00 +4°C° 0 mm 2 mps 761 mmHg 62%
    09:00 +5°C° 0 mm 2 mps 762 mmHg 55%
    10:00 +7°C° 0 mm 2 mps 761 mmHg 47%
    11:00 +8°C° 0 mm 2 mps 761 mmHg 40%
    12:00 +10°C° 0 mm 2 mps 760 mmHg 32%
    13:00 +12°C° 0 mm 2 mps 760 mmHg 33%
    14:00 +12°C° 0 mm 2 mps 759 mmHg 33%
    15:00 +12°C° 0 mm 2 mps 759 mmHg 34%
    16:00 +9°C° 0 mm 2 mps 759 mmHg 41%
    17:00 +8°C° 0 mm 1 mps 758 mmHg 49%
    18:00 +7°C° 0 mm 1 mps 758 mmHg 56%
    19:00 +6°C° 0 mm 1 mps 759 mmHg 57%
    20:00 +6°C° 0 mm 1 mps 759 mmHg 59%
    21:00 +5°C° 0 mm 1 mps 759 mmHg 60%
    22:00 +5°C° 0 mm 1 mps 759 mmHg 63%
    23:00 +5°C° 0 mm 1 mps 759 mmHg 65%
    Show more